Inquirer Daily News

Weather

Get conditions and forecasts for any City, State, ZIP code or Country:  
Trenton, NJ
on Thursday, November 29, 2012

Thursday
Previous Day Next Day
Daily Summary
 ActualAverageRecord
Temperature
Mean Temperature °F 41°F  
Max Temperature 43°F 49°F 70°F (1990)
Min Temperature 28°F 33°F 14°F (1929)
Degree Days
Heating Degree Days 29 24  
Month to date heating degree days 671 556  
Since 1 July heating degree days 978 953  
Cooling Degree Days 0 0  
Month to date cooling degree days 0 0  
Year to date cooling degree days 1234 965  
Moisture
Dew Point 22°F   
Average Humidity 57    
Maximum Humidity 69    
Minimum Humidity 45    
Precipitation
Precipitation 0.00 in 0.13 in 1.40 in (1987)
Month to date precipitation 1.18 3.17  
Year to date precipitation 33.23 42.60  
Wind
Wind Speed 5 mph   
Max Wind Speed 15 mph   
Max Gust Speed 23 mph   
Visibility 9 miles   
Events     

Key: T is trace of precipitation, MM is missing value
Source: NWS Daily Summary
Time(EST)TemperatureDew PointHumidity Pressure Visibility Wind DirectionWind SpeedGust SpeedPrecipitationEvents Conditions
12:53 AM 32.0°F 21.0°F 64% 30.29 in 10.0 miles WNW 4.6 mph - N/A   Clear
1:53 AM 30.9°F 19.9°F 64% 30.30 in 10.0 miles West 3.5 mph - N/A   Clear
2:53 AM 30.9°F 19.9°F 64% 30.31 in 10.0 miles WNW 5.8 mph - N/A   Clear
3:53 AM 32.0°F 19.9°F 61% 30.31 in 10.0 miles WNW 5.8 mph - N/A   Clear
4:53 AM 30.9°F 19.9°F 64% 30.31 in 10.0 miles WNW 5.8 mph - N/A   Clear
5:53 AM 30.9°F 19.9°F 64% 30.32 in 10.0 miles WNW 4.6 mph - N/A   Clear
6:53 AM 30.0°F 19.9°F 66% 30.34 in 10.0 miles West 5.8 mph - N/A   Clear
7:53 AM 30.9°F 21.9°F 69% 30.35 in 8.0 miles Calm Calm - N/A   Clear
8:53 AM 32.0°F 23.0°F 69% 30.37 in 8.0 miles WSW 3.5 mph - N/A   Clear
9:53 AM 36.0°F 24.1°F 62% 30.39 in 7.0 miles West 8.1 mph - N/A   Clear
10:53 AM 37.9°F 24.1°F 57% 30.38 in 8.0 miles WNW 9.2 mph - N/A   Clear
11:53 AM 42.1°F 24.1°F 49% 30.36 in 9.0 miles WNW 12.7 mph 19.6 mph N/A   Clear
12:53 PM 43.0°F 25.0°F 49% 30.34 in 10.0 miles WNW 10.4 mph 21.9 mph N/A   Clear
1:53 PM 43.0°F 24.1°F 47% 30.31 in 9.0 miles West 13.8 mph - N/A   Clear
2:53 PM 43.0°F 24.1°F 47% 30.30 in 10.0 miles WNW 12.7 mph 17.3 mph N/A   Clear
3:53 PM 43.0°F 23.0°F 45% 30.31 in 9.0 miles West 9.2 mph - N/A   Clear
4:53 PM 41.0°F 21.9°F 47% 30.30 in 10.0 miles West 6.9 mph - N/A   Clear
5:53 PM 39.0°F 21.9°F 50% 30.31 in 10.0 miles West 3.5 mph - N/A   Clear
6:53 PM 37.9°F 23.0°F 55% 30.32 in 10.0 miles WSW 3.5 mph - N/A   Clear
7:53 PM 36.0°F 23.0°F 59% 30.33 in 10.0 miles Calm Calm - N/A   Clear
8:53 PM 32.0°F 21.9°F 66% 30.33 in 9.0 miles Calm Calm - N/A   Clear
9:53 PM 32.0°F 21.9°F 66% 30.33 in 9.0 miles Calm Calm - N/A   Clear
10:53 PM 30.9°F 21.9°F 69% 30.32 in 9.0 miles Calm Calm - N/A   Clear
11:53 PM 28.0°F 21.9°F 78% 30.33 in 9.0 miles Calm Calm - N/A   Clear
Astronomy
Sunrise:07:01 AM (EST) Moon Rise:05:35 PM (EST)11/29
Sunset:04:34 PM (EST) Moon Set:07:45 AM (EST)11/29
Moon Phase
Nov. 29 Dec. 06 Dec. 13 Dec. 20 Dec. 28

Copyright © 2014 The Weather Underground, Inc.